When you browse on this site, cookies collect data to enhance your experience and personalize the content and advertising you see.
Visit our Privacy Policy to learn more. By continuing to use the site, you agree to this use of cookies and data.
  • In Switzerland
  • List of Countries
  • For 7 days
  • Water Temperature
  • Weather Map
  • Weather Widgets
  • user-avatar
    Login

    Hourly Weather San Miguel de Tucumán

    Today, 1 June, Monday

    Time Temperature Precipitation Wind Pressure Humidity
    00:00 +9°C° 0 mm 1 mps 724 mmHg 72%
    01:00 +9°C° 0 mm 1 mps 724 mmHg 72%
    02:00 +9°C° 0 mm 0 mps 725 mmHg 71%
    03:00 +9°C° 0 mm 0 mps 724 mmHg 70%
    04:00 +9°C° 0 mm 0 mps 724 mmHg 69%
    05:00 +10°C° 0 mm 0 mps 724 mmHg 68%
    06:00 +9°C° 0 mm 0 mps 724 mmHg 69%
    07:00 +9°C° 0 mm 0 mps 725 mmHg 70%
    08:00 +9°C° 0 mm 0 mps 725 mmHg 71%
    09:00 +12°C° 0 mm 1 mps 725 mmHg 62%
    10:00 +14°C° 0 mm 1 mps 725 mmHg 53%
    11:00 +18°C° 0 mm 1 mps 725 mmHg 45%
    12:00 +18°C° 0 mm 1 mps 724 mmHg 43%
    13:00 +19°C° 0 mm 1 mps 724 mmHg 40%
    14:00 +19°C° 0 mm 2 mps 723 mmHg 38%
    15:00 +18°C° 0 mm 2 mps 723 mmHg 41%
    16:00 +17°C° 0 mm 2 mps 723 mmHg 44%
    17:00 +16°C° 0 mm 2 mps 723 mmHg 47%
    18:00 +14°C° 0 mm 2 mps 723 mmHg 52%
    19:00 +13°C° 0 mm 2 mps 723 mmHg 58%
    20:00 +11°C° 0 mm 1 mps 724 mmHg 64%
    21:00 +10°C° 0 mm 1 mps 724 mmHg 66%
    22:00 +10°C° 0 mm 1 mps 724 mmHg 68%
    23:00 +9°C° 0 mm 1 mps 724 mmHg 70%

    Tomorrow, 2 June, Tuesday

    Time Temperature Precipitation Wind Pressure Humidity
    00:00 +9°C° 0 mm 1 mps 724 mmHg 72%
    01:00 +9°C° 0 mm 1 mps 723 mmHg 73%
    02:00 +8°C° 0 mm 1 mps 723 mmHg 75%
    03:00 +8°C° 0 mm 1 mps 723 mmHg 75%
    04:00 +8°C° 0 mm 1 mps 722 mmHg 75%
    05:00 +8°C° 0 mm 1 mps 722 mmHg 75%
    06:00 +8°C° 0 mm 1 mps 722 mmHg 72%
    07:00 +9°C° 0 mm 1 mps 722 mmHg 68%
    08:00 +10°C° 0 mm 1 mps 723 mmHg 65%
    09:00 +13°C° 0 mm 1 mps 722 mmHg 57%
    10:00 +15°C° 0 mm 1 mps 722 mmHg 50%
    11:00 +19°C° 0 mm 1 mps 722 mmHg 42%
    12:00 +20°C° 0 mm 1 mps 721 mmHg 40%
    13:00 +20°C° 0 mm 2 mps 720 mmHg 38%
    14:00 +21°C° 0 mm 2 mps 719 mmHg 36%
    15:00 +20°C° 0 mm 2 mps 719 mmHg 39%
    16:00 +19°C° 0 mm 2 mps 718 mmHg 43%
    17:00 +18°C° 0 mm 2 mps 718 mmHg 46%
    18:00 +16°C° 0 mm 2 mps 718 mmHg 51%
    19:00 +14°C° 0 mm 2 mps 718 mmHg 56%
    20:00 +13°C° 0 mm 2 mps 718 mmHg 60%
    21:00 +12°C° 0 mm 1 mps 718 mmHg 63%
    22:00 +11°C° 0 mm 1 mps 718 mmHg 66%
    23:00 +11°C° 0 mm 1 mps 718 mmHg 69%

    Day after tomorrow, 3 June, Wednesday

    Time Temperature Precipitation Wind Pressure Humidity
    00:00 +11°C° 0 mm 1 mps 717 mmHg 70%
    01:00 +10°C° 0 mm 1 mps 717 mmHg 71%
    02:00 +10°C° 0 mm 1 mps 717 mmHg 71%
    03:00 +10°C° 0 mm 1 mps 716 mmHg 73%
    04:00 +9°C° 0 mm 1 mps 716 mmHg 75%
    05:00 +8°C° 0 mm 0 mps 716 mmHg 76%
    06:00 +8°C° 0 mm 0 mps 716 mmHg 74%
    07:00 +9°C° 0 mm 0 mps 717 mmHg 71%
    08:00 +9°C° 0 mm 0 mps 717 mmHg 68%
    09:00 +13°C° 0 mm 1 mps 717 mmHg 61%
    10:00 +15°C° 0 mm 1 mps 717 mmHg 54%
    11:00 +19°C° 0 mm 1 mps 717 mmHg 47%
    12:00 +20°C° 0 mm 1 mps 717 mmHg 45%
    13:00 +20°C° 0 mm 2 mps 717 mmHg 44%
    14:00 +21°C° 0 mm 2 mps 716 mmHg 43%
    15:00 +20°C° 0 mm 2 mps 716 mmHg 47%
    16:00 +19°C° 0 mm 2 mps 717 mmHg 51%
    17:00 +18°C° 0 mm 3 mps 717 mmHg 55%
    18:00 +17°C° 0 mm 2 mps 718 mmHg 61%
    19:00 +15°C° 0 mm 2 mps 718 mmHg 67%
    20:00 +14°C° 0 mm 2 mps 719 mmHg 72%
    21:00 +14°C° 0 mm 2 mps 720 mmHg 74%
    22:00 +13°C° 0 mm 1 mps 721 mmHg 76%
    23:00 +13°C° 0 mm 1 mps 721 mmHg 78%

    4 June, Thursday

    Time Temperature Precipitation Wind Pressure Humidity
    00:00 +13°C° 0 mm 2 mps 721 mmHg 80%
    01:00 +12°C° 0 mm 2 mps 722 mmHg 82%
    02:00 +12°C° 0 mm 2 mps 722 mmHg 84%
    03:00 +12°C° 0.1 mm 2 mps 722 mmHg 87%
    04:00 +12°C° 0.1 mm 2 mps 722 mmHg 90%
    05:00 +10°C° 0.1 mm 2 mps 722 mmHg 94%
    06:00 +10°C° 0.1 mm 2 mps 722 mmHg 94%
    07:00 +10°C° 0.1 mm 2 mps 722 mmHg 94%
    08:00 +10°C° 0.1 mm 2 mps 722 mmHg 95%
    09:00 +10°C° 0 mm 2 mps 722 mmHg 93%
    10:00 +12°C° 0 mm 2 mps 722 mmHg 92%
    11:00 +12°C° 0 mm 2 mps 722 mmHg 90%
    12:00 +12°C° 0.1 mm 2 mps 721 mmHg 91%
    13:00 +12°C° 0.1 mm 2 mps 720 mmHg 91%
    14:00 +12°C° 0.1 mm 2 mps 719 mmHg 91%
    15:00 +12°C° 0.5 mm 2 mps 719 mmHg 93%
    16:00 +10°C° 0.5 mm 2 mps 719 mmHg 95%
    17:00 +10°C° 0.5 mm 2 mps 719 mmHg 96%
    18:00 +10°C° 0.7 mm 2 mps 720 mmHg 96%
    19:00 +10°C° 0.7 mm 2 mps 720 mmHg 96%
    20:00 +10°C° 0.7 mm 2 mps 721 mmHg 97%
    21:00 +10°C° 0.2 mm 2 mps 721 mmHg 97%
    22:00 +10°C° 0.2 mm 2 mps 722 mmHg 97%
    23:00 +9°C° 0.2 mm 2 mps 722 mmHg 97%

    5 June, Friday

    Time Temperature Precipitation Wind Pressure Humidity
    00:00 +10°C° 0 mm 1 mps 722 mmHg 96%
    01:00 +10°C° 0 mm 1 mps 722 mmHg 95%
    02:00 +9°C° 0 mm 1 mps 721 mmHg 94%
    03:00 +9°C° 0 mm 1 mps 721 mmHg 93%
    04:00 +9°C° 0 mm 1 mps 721 mmHg 92%
    05:00 +8°C° 0 mm 1 mps 721 mmHg 91%
    06:00 +9°C° 0 mm 1 mps 722 mmHg 88%
    07:00 +9°C° 0 mm 1 mps 722 mmHg 86%
    08:00 +9°C° 0 mm 2 mps 722 mmHg 83%
    09:00 +12°C° 0 mm 2 mps 722 mmHg 73%
    10:00 +15°C° 0 mm 2 mps 723 mmHg 63%
    11:00 +17°C° 0 mm 2 mps 723 mmHg 53%
    12:00 +18°C° 0 mm 2 mps 722 mmHg 48%
    13:00 +20°C° 0 mm 2 mps 721 mmHg 43%
    14:00 +21°C° 0 mm 2 mps 721 mmHg 38%
    15:00 +19°C° 0 mm 2 mps 720 mmHg 43%
    16:00 +18°C° 0 mm 2 mps 720 mmHg 48%
    17:00 +17°C° 0 mm 2 mps 720 mmHg 53%
    18:00 +15°C° 0 mm 2 mps 720 mmHg 56%
    19:00 +14°C° 0 mm 2 mps 720 mmHg 60%
    20:00 +12°C° 0 mm 2 mps 721 mmHg 63%
    21:00 +12°C° 0 mm 1 mps 721 mmHg 63%
    22:00 +12°C° 0 mm 1 mps 721 mmHg 63%
    23:00 +11°C° 0 mm 1 mps 721 mmHg 64%

    6 June, Saturday

    Time Temperature Precipitation Wind Pressure Humidity
    00:00 +11°C° 0 mm 1 mps 720 mmHg 64%
    01:00 +11°C° 0 mm 1 mps 720 mmHg 65%
    02:00 +11°C° 0 mm 1 mps 720 mmHg 65%
    03:00 +10°C° 0 mm 1 mps 720 mmHg 64%
    04:00 +10°C° 0 mm 1 mps 719 mmHg 62%
    05:00 +10°C° 0 mm 1 mps 719 mmHg 61%
    06:00 +11°C° 0 mm 1 mps 720 mmHg 59%
    07:00 +11°C° 0 mm 1 mps 720 mmHg 57%
    08:00 +12°C° 0 mm 1 mps 720 mmHg 54%
    09:00 +15°C° 0 mm 1 mps 720 mmHg 49%
    10:00 +19°C° 0 mm 1 mps 720 mmHg 43%
    11:00 +22°C° 0 mm 1 mps 720 mmHg 38%
    12:00 +23°C° 0 mm 1 mps 719 mmHg 37%
    13:00 +23°C° 0 mm 1 mps 719 mmHg 36%
    14:00 +24°C° 0 mm 1 mps 718 mmHg 35%
    15:00 +23°C° 0 mm 1 mps 717 mmHg 39%
    16:00 +22°C° 0 mm 1 mps 717 mmHg 44%
    17:00 +21°C° 0 mm 1 mps 717 mmHg 49%
    18:00 +19°C° 0 mm 1 mps 717 mmHg 53%
    19:00 +16°C° 0 mm 1 mps 717 mmHg 56%
    20:00 +15°C° 0 mm 1 mps 718 mmHg 60%
    21:00 +14°C° 0 mm 1 mps 718 mmHg 61%
    22:00 +14°C° 0 mm 1 mps 718 mmHg 61%
    23:00 +14°C° 0 mm 1 mps 718 mmHg 61%
    Show more